Location: Praha
(50.0830°N, 14.4670°E)
Time: 19:52:19
(UTC+01:00)

ISS - Pass Details

Date: 05 December 2019
Orbit: 411 x 421 km, 51.6° (Epoch: 08 December)

Event Time Altitude Azimuth Distance (km) Brightness Sun altitude
Rises 17:36:39 0° 284° (WNW) 2,358 1.1 -14.5°
Reaches altitude 10° 17:38:44 10° 285° (WNW) 1,496 -0.1 -14.8°
Maximum altitude 17:42:06 86° 15° (NNE) 424 -3.9 -15.3°
Enters shadow 17:43:30 33° 102° (ESE) 729 -3.0 -15.6°
